Location: Unspecified
(0.0000°N, 0.0000°E)
Time: 22:33:15
(UTC+00:00)

Mayak - Visible Passes

Search period start: 31 January 2023 00:00
Search period end: 10 February 2023 00:00
Orbit: 565 x 581 km, 97.4° (Epoch: 31 January)

Date Brightness Start Highest point End Pass type
(mag) Time Alt. Az. Time Alt. Az. Time Alt. Az.
31 Jan ? 19:45:56 15° N 19:49:07 46° W 19:53:03 10° SSW visible
01 Feb ? 19:48:38 14° NNW 19:51:52 41° W 19:55:44 10° SSW visible
02 Feb ? 19:51:20 13° NNW 19:54:35 37° W 19:58:23 10° SSW visible
03 Feb ? 19:54:00 12° NNW 19:57:18 33° WNW 20:01:00 10° SW visible
04 Feb ? 19:56:40 12° NNW 19:59:59 30° WNW 20:03:36 10° SW visible
05 Feb ? 19:59:18 11° NNW 20:02:39 28° WNW 20:06:10 10° SW visible
06 Feb ? 20:01:56 10° NNW 20:05:19 25° WNW 20:08:42 10° SW visible
07 Feb ? 20:04:43 10° NNW 20:07:58 23° W 20:11:13 10° SW visible
08 Feb ? 18:33:38 10° ENE 18:35:39 13° ESE 18:37:41 10° SE visible
08 Feb ? 20:07:29 10° NNW 20:10:35 21° WNW 20:13:41 10° SW visible
09 Feb ? 18:35:57 10° ENE 18:38:16 15° ESE 18:40:34 10° SE visible
09 Feb ? 20:10:16 10° NNW 20:13:11 19° WNW 20:16:07 10° SW visible
